Location: Aydie
(43.5695°N, 0.1043°W)
Time: 05:16:45
(UTC+00:00)

Resurs 01 Rocket - Pass Details

Date: 17 November 2025
Orbit: 627 x 636 km, 97.7° (Epoch: 04 December)

Event Time Altitude Azimuth Distance (km) Brightness Sun altitude
Exits shadow 18:46:18 12° 1° (N) 1,895 4.0 -23.9°
Drops below altitude 10° 18:46:39 10° 360° (N) 2,033 4.2 -24.0°
Sets 18:48:56 0° 354° (N) 2,946 5.1 -24.4°
